TimeAKST,TemperatureF,Dew PointF,Humidity,Sea Level PressureIn,VisibilityMPH,Wind Direction,Wind SpeedMPH,Gust SpeedMPH,PrecipitationIn,Events,Conditions,WindDirDegrees,DateUTC
12:53 AM,44.1,39.9,85,29.47,10.0,SE,15.0,-,0.01,,Overcast,140,2013-01-25 09:53:00
1:53 AM,44.1,39.0,82,29.49,10.0,SSE,9.2,18.4,N/A,,Overcast,150,2013-01-25 10:53:00
2:19 AM,44.6,39.2,81,29.50,10.0,SE,18.4,27.6,N/A,,Overcast,140,2013-01-25 11:19:00
3:18 AM,44.6,39.2,81,29.50,10.0,SSE,18.4,31.1,N/A,,Overcast,150,2013-01-25 12:18:00
3:34 AM,42.8,37.4,81,29.51,8.0,SE,16.1,25.3,0.01,Rain,Light Rain,140,2013-01-25 12:34:00
3:53 AM,42.1,39.0,89,29.50,6.0,SE,12.7,-,0.03,Rain,Rain,140,2013-01-25 12:53:00
4:06 AM,41.0,39.2,93,29.49,7.0,SE,12.7,-,0.01,Rain,Light Rain,140,2013-01-25 13:06:00
4:22 AM,41.0,37.4,87,29.49,8.0,SE,13.8,25.3,0.02,Rain,Light Rain,140,2013-01-25 13:22:00
4:53 AM,41.0,37.9,89,29.48,10.0,SSE,16.1,24.2,0.11,Rain,Light Rain,150,2013-01-25 13:53:00
5:30 AM,41.0,37.4,87,29.48,10.0,SSE,16.1,23.0,0.02,Rain,Light Rain,150,2013-01-25 14:30:00
5:43 AM,41.0,37.4,87,29.48,9.0,SSE,15.0,24.2,0.04,Rain,Light Rain,150,2013-01-25 14:43:00
5:53 AM,41.0,37.9,89,29.49,10.0,SE,21.9,26.5,0.05,Rain,Light Rain,130,2013-01-25 14:53:00
6:03 AM,41.0,37.4,87,29.48,10.0,SE,15.0,26.5,0.01,Rain,Light Rain,140,2013-01-25 15:03:00
6:53 AM,41.0,39.2,93,29.49,10.0,SE,20.7,25.3,N/A,Rain,Light Rain,130,2013-01-25 15:53:00
7:53 AM,41.0,37.4,87,29.50,10.0,SE,17.3,25.3,N/A,Rain,Light Rain,140,2013-01-25 16:53:00
8:53 AM,41.0,37.9,89,29.51,10.0,SSE,12.7,25.3,0.17,Rain,Rain,150,2013-01-25 17:53:00
9:53 AM,41.0,37.4,87,29.53,8.0,SE,20.7,29.9,N/A,Rain,Rain,140,2013-01-25 18:53:00
10:53 AM,39.9,37.0,89,29.55,4.0,ESE,20.7,26.5,0.14,Rain,Rain,120,2013-01-25 19:53:00
11:53 AM,41.0,39.0,93,29.55,3.0,SSE,10.4,-,0.12,Rain,Rain,150,2013-01-25 20:53:00
12:53 PM,41.0,39.0,93,29.55,4.0,SE,11.5,20.7,0.19,Rain,Rain,140,2013-01-25 21:53:00
1:56 PM,39.2,37.4,93,29.56,3.0,SE,10.4,-,0.01,Rain,Heavy Rain,140,2013-01-25 22:56:00
2:53 PM,39.9,37.9,93,29.57,7.0,SE,13.8,-,0.12,Rain,Light Rain,130,2013-01-25 23:53:00
3:53 PM,39.9,37.9,93,29.58,4.0,SSE,9.2,-,0.04,Rain,Light Rain,150,2013-01-26 00:53:00
4:53 PM,39.9,39.0,97,29.60,10.0,South,4.6,-,0.01,,Overcast,170,2013-01-26 01:53:00
5:53 PM,39.9,39.0,97,29.62,6.0,SE,8.1,-,0.02,,Overcast,130,2013-01-26 02:53:00
6:05 PM,39.2,39.2,100,29.61,2.5,SE,5.8,-,0.00,Rain,Light Rain,140,2013-01-26 03:05:00
6:12 PM,39.2,39.2,100,29.61,3.0,SSE,5.8,-,0.00,Rain,Light Rain,150,2013-01-26 03:12:00
6:53 PM,39.9,39.0,97,29.63,5.0,South,4.6,-,0.00,,Overcast,170,2013-01-26 03:53:00
7:53 PM,39.9,39.0,97,29.64,6.0,SE,6.9,-,0.02,,Overcast,140,2013-01-26 04:53:00
8:53 PM,39.9,37.9,93,29.66,8.0,SE,6.9,-,0.01,Rain,Light Rain,140,2013-01-26 05:53:00
9:28 PM,39.2,37.4,93,29.66,6.0,SE,6.9,-,0.00,Rain,Light Rain,140,2013-01-26 06:28:00
9:39 PM,39.2,37.4,93,29.66,2.5,SSE,4.6,-,0.01,Rain,Light Rain,150,2013-01-26 06:39:00
9:46 PM,39.2,37.4,93,29.66,4.0,SSE,5.8,-,0.01,Rain,Light Rain,150,2013-01-26 06:46:00
9:53 PM,39.0,37.9,96,29.67,10.0,SE,9.2,-,0.01,,Overcast,140,2013-01-26 06:53:00
10:38 PM,39.2,37.4,93,29.68,10.0,SE,5.8,-,0.00,,Overcast,140,2013-01-26 07:38:00
10:48 PM,39.2,37.4,93,29.67,10.0,SSE,6.9,-,0.00,Rain,Light Rain,150,2013-01-26 07:48:00
10:53 PM,39.0,37.9,96,29.68,10.0,South,5.8,-,0.00,Rain,Light Rain,170,2013-01-26 07:53:00
11:47 PM,39.2,37.4,93,29.69,9.0,SSE,5.8,-,0.04,,Overcast,150,2013-01-26 08:47:00
11:53 PM,39.0,37.9,96,29.69,10.0,SSE,5.8,-,0.04,,Overcast,150,2013-01-26 08:53:00